Time,TemperatureF,DewpointF,PressureIn,WindDirection,WindDirectionDegrees,WindSpeedMPH,WindSpeedGustMPH,Humidity,HourlyPrecipIn,Conditions,Clouds,dailyrainin,SoftwareType,DateUTC
2013-05-16 00:02:00,72.0,61.2,30.06,East,92,2.0,8.0,69,0.00,,,0.00,meteohub,2013-05-16 04:02:00,
2013-05-16 00:05:00,72.0,61.7,30.06,East,96,3.0,8.0,70,0.00,,,0.00,meteohub,2013-05-16 04:05:00,
2013-05-16 00:07:00,72.0,61.7,30.06,East,96,2.0,8.0,70,0.00,,,0.00,meteohub,2013-05-16 04:07:00,
2013-05-16 00:08:00,72.0,61.7,30.06,East,96,2.0,8.0,70,0.00,,,0.00,meteohub,2013-05-16 04:08:00,
2013-05-16 00:14:00,72.0,61.7,30.06,East,95,0.0,7.0,70,0.00,,,0.00,meteohub,2013-05-16 04:14:00,
2013-05-16 00:20:00,72.0,62.1,30.05,East,100,0.0,6.0,71,0.00,,,0.00,meteohub,2013-05-16 04:20:00,
2013-05-16 00:26:00,71.8,61.9,30.05,East,101,0.0,6.0,71,0.00,,,0.00,meteohub,2013-05-16 04:26:00,
2013-05-16 00:32:00,71.8,61.9,30.05,ESE,103,0.0,6.0,71,0.00,,,0.00,meteohub,2013-05-16 04:32:00,
2013-05-16 00:37:00,71.8,61.9,30.05,ESE,104,0.0,5.0,71,0.00,,,0.00,meteohub,2013-05-16 04:37:00,
2013-05-16 00:42:00,72.0,61.7,30.05,ESE,110,0.0,4.0,70,0.00,,,0.00,meteohub,2013-05-16 04:42:00,
2013-05-16 00:47:00,72.1,61.9,30.05,ESE,110,0.0,4.0,70,0.00,,,0.00,meteohub,2013-05-16 04:47:00,
2013-05-16 00:52:00,72.1,61.9,30.06,ESE,110,0.0,3.0,70,0.00,,,0.00,meteohub,2013-05-16 04:52:00,
2013-05-16 00:57:00,72.1,61.3,30.06,ESE,111,1.0,3.0,69,0.00,,,0.00,meteohub,2013-05-16 04:57:00,
2013-05-16 01:02:00,72.1,61.3,30.06,ESE,112,0.0,3.0,69,0.00,,,0.00,meteohub,2013-05-16 05:02:00,
2013-05-16 01:07:00,72.1,61.3,30.06,ESE,123,0.0,3.0,69,0.00,,,0.00,meteohub,2013-05-16 05:07:00,
2013-05-16 01:12:00,72.1,61.3,30.05,SE,137,2.0,4.0,69,0.00,,,0.00,meteohub,2013-05-16 05:12:00,
2013-05-16 01:17:00,72.1,61.3,30.05,SE,141,0.0,5.0,69,0.00,,,0.00,meteohub,2013-05-16 05:17:00,
2013-05-16 01:22:00,72.0,61.7,30.06,SE,145,1.0,5.0,70,0.00,,,0.00,meteohub,2013-05-16 05:22:00,
2013-05-16 01:27:00,72.0,61.7,30.05,SSE,149,4.0,5.0,70,0.00,,,0.00,meteohub,2013-05-16 05:27:00,
2013-05-16 01:32:00,72.0,61.7,30.05,SSE,152,0.0,7.0,70,0.00,,,0.00,meteohub,2013-05-16 05:32:00,
2013-05-16 01:37:00,71.8,61.5,30.05,SSE,147,3.0,8.0,70,0.00,,,0.00,meteohub,2013-05-16 05:37:00,
2013-05-16 01:42:00,71.6,61.7,30.04,SE,145,3.0,8.0,71,0.00,,,0.00,meteohub,2013-05-16 05:42:00,
2013-05-16 01:47:00,71.4,61.9,30.04,SSE,147,0.0,6.0,72,0.00,,,0.00,meteohub,2013-05-16 05:47:00,
2013-05-16 01:52:00,71.2,61.7,30.04,SSE,150,3.0,5.0,72,0.00,,,0.00,meteohub,2013-05-16 05:52:00,
2013-05-16 01:57:00,71.2,62.1,30.04,SE,145,1.0,5.0,73,0.00,,,0.00,meteohub,2013-05-16 05:57:00,
2013-05-16 02:02:00,71.1,61.9,30.04,SE,136,2.0,6.0,73,0.00,,,0.00,meteohub,2013-05-16 06:02:00,
2013-05-16 02:07:00,70.9,62.2,30.04,SE,140,3.0,6.0,74,0.00,,,0.00,meteohub,2013-05-16 06:07:00,
2013-05-16 02:12:00,70.9,62.6,30.04,SE,129,3.0,6.0,75,0.00,,,0.00,meteohub,2013-05-16 06:12:00,
2013-05-16 02:17:00,70.9,62.6,30.04,SE,131,3.0,6.0,75,0.00,,,0.00,meteohub,2013-05-16 06:17:00,
2013-05-16 02:22:00,70.7,62.4,30.04,SE,139,3.0,6.0,75,0.00,,,0.00,meteohub,2013-05-16 06:22:00,
2013-05-16 02:27:00,70.5,62.6,30.04,SE,143,1.0,6.0,76,0.00,,,0.00,meteohub,2013-05-16 06:27:00,
2013-05-16 02:32:00,70.5,62.6,30.04,SE,141,0.0,6.0,76,0.00,,,0.00,meteohub,2013-05-16 06:32:00,
2013-05-16 02:37:00,70.3,62.8,30.03,SE,143,0.0,5.0,77,0.00,,,0.00,meteohub,2013-05-16 06:37:00,
2013-05-16 02:42:00,70.2,62.6,30.03,SE,143,0.0,4.0,77,0.00,,,0.00,meteohub,2013-05-16 06:42:00,
2013-05-16 02:47:00,70.2,63.0,30.03,SE,143,0.0,3.0,78,0.00,,,0.00,meteohub,2013-05-16 06:47:00,
2013-05-16 02:52:00,70.0,62.8,30.03,SE,143,1.0,3.0,78,0.00,,,0.00,meteohub,2013-05-16 06:52:00,
2013-05-16 02:57:00,70.0,63.1,30.03,SE,143,3.0,3.0,79,0.00,,,0.00,meteohub,2013-05-16 06:57:00,
2013-05-16 03:02:00,69.8,63.0,30.03,SE,143,0.0,4.0,79,0.00,,,0.00,meteohub,2013-05-16 07:02:00,
2013-05-16 03:07:00,69.6,63.1,30.03,SE,143,0.0,4.0,80,0.00,,,0.00,meteohub,2013-05-16 07:07:00,
2013-05-16 03:12:00,69.6,63.1,30.03,SE,143,0.0,5.0,80,0.00,,,0.00,meteohub,2013-05-16 07:12:00,
2013-05-16 03:17:00,69.4,63.0,30.02,SE,143,2.0,5.0,80,0.00,,,0.00,meteohub,2013-05-16 07:17:00,
2013-05-16 03:22:00,69.4,63.3,30.02,SE,143,0.0,5.0,81,0.00,,,0.00,meteohub,2013-05-16 07:22:00,
2013-05-16 03:27:00,69.4,63.3,30.02,SE,144,3.0,4.0,81,0.00,,,0.00,meteohub,2013-05-16 07:27:00,
2013-05-16 03:32:00,69.4,63.7,30.02,SSE,147,6.0,6.0,82,0.00,,,0.00,meteohub,2013-05-16 07:32:00,
2013-05-16 03:37:00,69.4,63.7,30.02,SE,146,2.0,5.0,82,0.00,,,0.00,meteohub,2013-05-16 07:37:00,
2013-05-16 03:42:00,69.4,63.7,30.02,SSE,154,4.0,7.0,82,0.00,,,0.00,meteohub,2013-05-16 07:42:00,
2013-05-16 03:47:00,69.4,64.0,30.01,SSE,150,4.0,7.0,83,0.00,,,0.00,meteohub,2013-05-16 07:47:00,
2013-05-16 03:52:00,69.4,64.0,30.02,SSE,148,2.0,7.0,83,0.00,,,0.00,meteohub,2013-05-16 07:52:00,
2013-05-16 03:57:00,69.4,64.0,30.01,SSE,149,1.0,7.0,83,0.00,,,0.00,meteohub,2013-05-16 07:57:00,
2013-05-16 04:02:00,69.3,63.9,30.01,SSE,151,2.0,7.0,83,0.00,,,0.00,meteohub,2013-05-16 08:02:00,
2013-05-16 04:07:00,69.3,63.9,30.01,SSE,152,4.0,6.0,83,0.00,,,0.00,meteohub,2013-05-16 08:07:00,
2013-05-16 04:12:00,69.3,64.2,30.01,SSE,152,0.0,6.0,84,0.00,,,0.00,meteohub,2013-05-16 08:12:00,
2013-05-16 04:17:00,69.3,64.2,30.01,SSE,147,1.0,6.0,84,0.00,,,0.00,meteohub,2013-05-16 08:17:00,
2013-05-16 04:22:00,69.1,64.0,30.01,SSE,149,3.0,5.0,84,0.00,,,0.00,meteohub,2013-05-16 08:22:00,
2013-05-16 04:27:00,69.1,64.0,30.01,SSE,155,3.0,7.0,84,0.00,,,0.00,meteohub,2013-05-16 08:27:00,
2013-05-16 04:32:00,69.1,64.0,30.01,SSE,149,4.0,7.0,84,0.00,,,0.00,meteohub,2013-05-16 08:32:00,
2013-05-16 04:37:00,68.9,63.9,30.01,SE,146,1.0,5.0,84,0.00,,,0.00,meteohub,2013-05-16 08:37:00,
2013-05-16 04:42:00,68.9,63.9,30.01,SE,131,2.0,5.0,84,0.00,,,0.00,meteohub,2013-05-16 08:42:00,
2013-05-16 04:47:00,69.1,64.0,30.01,SE,138,3.0,6.0,84,0.00,,,0.00,meteohub,2013-05-16 08:47:00,
2013-05-16 04:52:00,69.1,64.0,30.01,SE,144,0.0,6.0,84,0.00,,,0.00,meteohub,2013-05-16 08:52:00,
2013-05-16 04:57:00,68.9,63.9,30.01,SE,143,0.0,6.0,84,0.00,,,0.00,meteohub,2013-05-16 08:57:00,
2013-05-16 05:02:00,68.9,63.9,30.01,SE,125,2.0,6.0,84,0.00,,,0.00,meteohub,2013-05-16 09:02:00,
2013-05-16 05:07:00,68.7,63.7,30.01,SE,135,0.0,6.0,84,0.00,,,0.00,meteohub,2013-05-16 09:07:00,
2013-05-16 05:12:00,68.7,63.7,30.01,SE,135,2.0,6.0,84,0.00,,,0.00,meteohub,2013-05-16 09:12:00,
2013-05-16 05:17:00,68.7,63.7,30.01,SE,143,3.0,6.0,84,0.00,,,0.00,meteohub,2013-05-16 09:17:00,
2013-05-16 05:22:00,68.7,63.7,30.01,SE,145,1.0,6.0,84,0.00,,,0.00,meteohub,2013-05-16 09:22:00,
2013-05-16 05:27:00,68.7,63.7,30.01,SE,145,2.0,6.0,84,0.00,,,0.00,meteohub,2013-05-16 09:27:00,
2013-05-16 05:32:00,68.7,63.7,30.01,SE,145,0.0,6.0,84,0.00,,,0.00,meteohub,2013-05-16 09:32:00,
2013-05-16 05:37:00,68.7,63.7,30.02,SE,145,1.0,5.0,84,0.00,,,0.00,meteohub,2013-05-16 09:37:00,
2013-05-16 05:42:00,68.5,63.5,30.01,SE,145,3.0,5.0,84,0.00,,,0.00,meteohub,2013-05-16 09:42:00,
2013-05-16 05:47:00,68.5,63.9,30.01,SE,141,0.0,5.0,85,0.00,,,0.00,meteohub,2013-05-16 09:47:00,
2013-05-16 05:52:00,68.5,63.9,30.02,SSE,149,0.0,5.0,85,0.00,,,0.00,meteohub,2013-05-16 09:52:00,
2013-05-16 05:57:00,68.5,63.9,30.02,SE,143,4.0,5.0,85,0.00,,,0.00,meteohub,2013-05-16 09:57:00,
2013-05-16 06:02:00,68.5,63.9,30.02,SE,143,0.0,5.0,85,0.00,,,0.00,meteohub,2013-05-16 10:02:00,
2013-05-16 06:07:00,68.4,63.7,30.02,SE,143,1.0,5.0,85,0.00,,,0.00,meteohub,2013-05-16 10:07:00,
2013-05-16 06:12:00,68.4,63.7,30.02,SE,143,1.0,5.0,85,0.00,,,0.00,meteohub,2013-05-16 10:12:00,
2013-05-16 06:17:00,68.2,63.5,30.02,SE,143,0.0,4.0,85,0.00,,,0.00,meteohub,2013-05-16 10:17:00,
2013-05-16 06:22:00,68.2,63.5,30.03,SE,143,0.0,5.0,85,0.00,,,0.00,meteohub,2013-05-16 10:22:00,
2013-05-16 06:27:00,68.2,63.9,30.03,SE,143,1.0,5.0,86,0.00,,,0.00,meteohub,2013-05-16 10:27:00,
2013-05-16 06:32:00,68.0,63.7,30.03,SE,143,0.0,5.0,86,0.00,,,0.00,meteohub,2013-05-16 10:32:00,
2013-05-16 06:37:00,68.0,63.7,30.03,SE,144,0.0,5.0,86,0.00,,,0.00,meteohub,2013-05-16 10:37:00,
2013-05-16 06:42:00,68.0,63.7,30.03,SE,145,0.0,5.0,86,0.00,,,0.00,meteohub,2013-05-16 10:42:00,
2013-05-16 06:47:00,68.0,63.7,30.04,SE,144,1.0,4.0,86,0.00,,,0.00,meteohub,2013-05-16 10:47:00,
2013-05-16 06:52:00,68.2,63.9,30.04,SE,144,0.0,4.0,86,0.00,,,0.00,meteohub,2013-05-16 10:52:00,
2013-05-16 06:57:00,68.2,63.9,30.04,SE,145,0.0,4.0,86,0.00,,,0.00,meteohub,2013-05-16 10:57:00,
2013-05-16 07:02:00,68.2,63.9,30.04,SE,145,0.0,4.0,86,0.00,,,0.00,meteohub,2013-05-16 11:02:00,
2013-05-16 07:07:00,68.2,63.9,30.04,SE,144,0.0,4.0,86,0.00,,,0.00,meteohub,2013-05-16 11:07:00,
2013-05-16 07:12:00,68.2,63.9,30.05,SE,145,0.0,3.0,86,0.00,,,0.00,meteohub,2013-05-16 11:12:00,
2013-05-16 07:17:00,68.4,63.7,30.05,SE,144,0.0,3.0,85,0.00,,,0.00,meteohub,2013-05-16 11:17:00,
2013-05-16 07:22:00,68.5,64.2,30.05,SE,145,0.0,3.0,86,0.00,,,0.00,meteohub,2013-05-16 11:22:00,
2013-05-16 07:27:00,68.5,63.9,30.05,SE,145,0.0,3.0,85,0.00,,,0.00,meteohub,2013-05-16 11:27:00,
2013-05-16 07:32:00,68.7,64.0,30.05,SE,144,0.0,3.0,85,0.00,,,0.00,meteohub,2013-05-16 11:32:00,
2013-05-16 07:37:00,69.1,64.4,30.05,SE,144,1.0,3.0,85,0.00,,,0.00,meteohub,2013-05-16 11:37:00,
2013-05-16 07:42:00,69.3,64.2,30.06,SSE,150,4.0,6.0,84,0.00,,,0.00,meteohub,2013-05-16 11:42:00,
2013-05-16 07:47:00,69.4,64.0,30.06,SSE,150,4.0,7.0,83,0.00,,,0.00,meteohub,2013-05-16 11:47:00,
2013-05-16 07:52:00,69.8,64.4,30.06,SE,143,2.0,7.0,83,0.00,,,0.00,meteohub,2013-05-16 11:52:00,
2013-05-16 07:57:00,70.2,64.4,30.06,SE,139,1.0,7.0,82,0.00,,,0.00,meteohub,2013-05-16 11:57:00,
2013-05-16 08:02:00,70.3,64.2,30.06,SE,138,0.0,6.0,81,0.00,,,0.00,meteohub,2013-05-16 12:02:00,
2013-05-16 08:07:00,70.7,64.6,30.07,SSE,156,0.0,6.0,81,0.00,,,0.00,meteohub,2013-05-16 12:07:00,
2013-05-16 08:12:00,71.1,64.2,30.07,SE,138,1.0,7.0,79,0.00,,,0.00,meteohub,2013-05-16 12:12:00,
2013-05-16 08:17:00,71.2,64.0,30.07,SSE,160,3.0,7.0,78,0.00,,,0.00,meteohub,2013-05-16 12:17:00,
2013-05-16 08:22:00,71.8,64.2,30.07,SE,143,2.0,8.0,77,0.00,,,0.00,meteohub,2013-05-16 12:22:00,
2013-05-16 08:27:00,72.1,64.2,30.07,SE,134,0.0,8.0,76,0.00,,,0.00,meteohub,2013-05-16 12:27:00,
2013-05-16 08:32:00,72.3,63.9,30.08,SE,140,1.0,8.0,75,0.00,,,0.00,meteohub,2013-05-16 12:32:00,
2013-05-16 08:37:00,72.9,64.0,30.08,SE,143,1.0,6.0,74,0.00,,,0.00,meteohub,2013-05-16 12:37:00,
2013-05-16 08:42:00,73.2,64.0,30.08,SE,141,3.0,7.0,73,0.00,,,0.00,meteohub,2013-05-16 12:42:00,
2013-05-16 08:47:00,73.6,63.7,30.08,SSE,164,0.0,7.0,71,0.00,,,0.00,meteohub,2013-05-16 12:47:00,
2013-05-16 08:52:00,73.9,63.1,30.08,SSE,166,3.0,8.0,69,0.00,,,0.00,meteohub,2013-05-16 12:52:00,
2013-05-16 08:57:00,74.3,63.5,30.09,SSE,156,1.0,8.0,69,0.00,,,0.00,meteohub,2013-05-16 12:57:00,
2013-05-16 09:02:00,74.7,63.9,30.08,South,175,4.0,7.0,69,0.00,,,0.00,meteohub,2013-05-16 13:02:00,
2013-05-16 09:07:00,74.8,63.1,30.08,SE,139,0.0,7.0,67,0.00,,,0.00,meteohub,2013-05-16 13:07:00,
2013-05-16 09:12:00,75.0,63.3,30.08,SSE,149,3.0,8.0,67,0.00,,,0.00,meteohub,2013-05-16 13:12:00,
2013-05-16 09:17:00,75.2,63.1,30.08,SSE,161,0.0,8.0,66,0.00,,,0.00,meteohub,2013-05-16 13:17:00,
2013-05-16 09:22:00,75.7,63.1,30.08,SSE,152,4.0,8.0,65,0.00,,,0.00,meteohub,2013-05-16 13:22:00,
2013-05-16 09:27:00,75.7,63.1,30.08,SSE,158,0.0,9.0,65,0.00,,,0.00,meteohub,2013-05-16 13:27:00,
2013-05-16 09:32:00,75.9,62.8,30.08,SSE,160,0.0,9.0,64,0.00,,,0.00,meteohub,2013-05-16 13:32:00,
2013-05-16 09:37:00,76.3,63.1,30.08,SSE,166,3.0,9.0,64,0.00,,,0.00,meteohub,2013-05-16 13:37:00,
2013-05-16 09:42:00,76.6,63.1,30.08,SSE,150,0.0,9.0,63,0.00,,,0.00,meteohub,2013-05-16 13:42:00,
2013-05-16 09:47:00,76.6,63.1,30.09,SSE,160,3.0,9.0,63,0.00,,,0.00,meteohub,2013-05-16 13:47:00,
2013-05-16 09:52:00,76.8,63.3,30.09,SSE,158,7.0,10.0,63,0.00,,,0.00,meteohub,2013-05-16 13:52:00,
2013-05-16 09:57:00,77.0,63.5,30.09,SSE,153,0.0,10.0,63,0.00,,,0.00,meteohub,2013-05-16 13:57:00,
2013-05-16 10:02:00,77.5,63.9,30.09,SSE,164,0.0,10.0,63,0.00,,,0.00,meteohub,2013-05-16 14:02:00,
2013-05-16 10:07:00,78.3,63.7,30.09,South,177,0.0,8.0,61,0.00,,,0.00,meteohub,2013-05-16 14:07:00,
2013-05-16 10:12:00,78.4,63.0,30.09,SSE,168,3.0,5.0,59,0.00,,,0.00,meteohub,2013-05-16 14:12:00,
2013-05-16 10:17:00,78.8,63.3,30.09,SSW,198,0.0,10.0,59,0.00,,,0.00,meteohub,2013-05-16 14:17:00,
2013-05-16 10:22:00,78.6,62.1,30.09,WSW,245,5.0,10.0,57,0.00,,,0.00,meteohub,2013-05-16 14:22:00,
2013-05-16 10:27:00,78.4,62.4,30.09,SSW,194,2.0,9.0,58,0.00,,,0.00,meteohub,2013-05-16 14:27:00,
2013-05-16 10:32:00,78.6,62.1,30.09,WSW,241,0.0,10.0,57,0.00,,,0.00,meteohub,2013-05-16 14:32:00,
2013-05-16 10:37:00,79.0,61.0,30.09,WSW,245,3.0,10.0,54,0.00,,,0.00,meteohub,2013-05-16 14:37:00,
2013-05-16 10:42:00,79.2,61.2,30.09,South,174,0.0,9.0,54,0.00,,,0.00,meteohub,2013-05-16 14:42:00,
2013-05-16 10:47:00,78.6,60.1,30.09,WSW,251,6.0,9.0,53,0.00,,,0.00,meteohub,2013-05-16 14:47:00,
2013-05-16 10:52:00,78.4,60.4,30.09,SSE,151,2.0,9.0,54,0.00,,,0.00,meteohub,2013-05-16 14:52:00,
2013-05-16 10:57:00,79.5,61.3,30.09,SSE,162,0.0,7.0,54,0.00,,,0.00,meteohub,2013-05-16 14:57:00,
2013-05-16 11:02:00,78.6,60.6,30.10,WNW,283,0.0,7.0,54,0.00,,,0.00,meteohub,2013-05-16 15:02:00,
2013-05-16 11:07:00,78.4,61.5,30.10,West,262,0.0,7.0,56,0.00,,,0.00,meteohub,2013-05-16 15:07:00,
2013-05-16 11:12:00,79.9,61.7,30.10,SSW,192,0.0,6.0,54,0.00,,,0.00,meteohub,2013-05-16 15:12:00,
2013-05-16 11:17:00,80.2,62.6,30.10,SSE,160,0.0,11.0,55,0.00,,,0.00,meteohub,2013-05-16 15:17:00,
2013-05-16 11:22:00,80.8,62.6,30.10,WSW,242,3.0,11.0,54,0.00,,,0.00,meteohub,2013-05-16 15:22:00,
2013-05-16 11:27:00,78.6,62.1,30.10,WSW,251,7.0,11.0,57,0.00,,,0.00,meteohub,2013-05-16 15:27:00,
2013-05-16 11:32:00,77.5,62.1,30.10,WNW,284,8.0,11.0,59,0.00,,,0.00,meteohub,2013-05-16 15:32:00,
2013-05-16 11:37:00,77.7,62.2,30.09,WSW,245,5.0,11.0,59,0.00,,,0.00,meteohub,2013-05-16 15:37:00,
2013-05-16 11:42:00,77.9,62.4,30.10,WSW,257,7.0,12.0,59,0.00,,,0.00,meteohub,2013-05-16 15:42:00,
2013-05-16 11:47:00,77.5,62.1,30.10,WSW,250,11.0,12.0,59,0.00,,,0.00,meteohub,2013-05-16 15:47:00,
2013-05-16 11:52:00,77.2,62.2,30.10,WSW,243,11.0,13.0,60,0.00,,,0.00,meteohub,2013-05-16 15:52:00,
2013-05-16 11:57:00,77.2,62.6,30.10,WSW,253,9.0,13.0,61,0.00,,,0.00,meteohub,2013-05-16 15:57:00,
2013-05-16 12:02:00,77.2,62.6,30.09,West,266,10.0,14.0,61,0.00,,,0.00,meteohub,2013-05-16 16:02:00,
2013-05-16 12:07:00,77.4,63.3,30.09,WNW,284,9.0,14.0,62,0.00,,,0.00,meteohub,2013-05-16 16:07:00,
2013-05-16 12:12:00,77.5,63.5,30.09,WNW,285,9.0,16.0,62,0.00,,,0.00,meteohub,2013-05-16 16:12:00,
2013-05-16 12:17:00,77.7,63.1,30.09,West,264,9.0,16.0,61,0.00,,,0.00,meteohub,2013-05-16 16:17:00,
2013-05-16 12:22:00,77.5,63.0,30.08,West,261,6.0,16.0,61,0.00,,,0.00,meteohub,2013-05-16 16:22:00,
2013-05-16 12:27:00,77.9,63.0,30.08,West,265,5.0,13.0,60,0.00,,,0.00,meteohub,2013-05-16 16:27:00,
2013-05-16 12:32:00,78.1,62.6,30.08,West,269,7.0,13.0,59,0.00,,,0.00,meteohub,2013-05-16 16:32:00,
2013-05-16 12:37:00,78.1,62.1,30.08,West,273,7.0,12.0,58,0.00,,,0.00,meteohub,2013-05-16 16:37:00,
2013-05-16 12:42:00,78.6,62.1,30.08,West,260,5.0,12.0,57,0.00,,,0.00,meteohub,2013-05-16 16:42:00,
2013-05-16 12:47:00,78.6,62.1,30.08,West,264,10.0,11.0,57,0.00,,,0.00,meteohub,2013-05-16 16:47:00,
2013-05-16 12:52:00,78.3,61.3,30.07,WNW,285,8.0,14.0,56,0.00,,,0.00,meteohub,2013-05-16 16:52:00,
2013-05-16 12:57:00,78.6,61.2,30.08,West,266,2.0,14.0,55,0.00,,,0.00,meteohub,2013-05-16 16:57:00,
2013-05-16 13:03:00,79.0,61.5,30.07,WNW,292,8.0,14.0,55,0.00,,,0.00,meteohub,2013-05-16 17:03:00,
2013-05-16 13:09:00,79.0,63.0,30.07,WNW,282,5.0,14.0,58,0.00,,,0.00,meteohub,2013-05-16 17:09:00,
2013-05-16 13:15:00,78.6,63.1,30.06,West,280,10.0,13.0,59,0.00,,,0.00,meteohub,2013-05-16 17:15:00,
2013-05-16 13:21:00,78.3,63.7,30.06,NW,305,4.0,13.0,61,0.00,,,0.00,meteohub,2013-05-16 17:21:00,
2013-05-16 13:27:00,78.1,64.0,30.06,WSW,252,6.0,12.0,62,0.00,,,0.00,meteohub,2013-05-16 17:27:00,
2013-05-16 13:32:00,77.9,63.3,30.06,SW,232,7.0,12.0,61,0.00,,,0.00,meteohub,2013-05-16 17:32:00,
2013-05-16 13:37:00,77.7,63.7,30.06,WSW,238,10.0,13.0,62,0.00,,,0.00,meteohub,2013-05-16 17:37:00,
2013-05-16 13:42:00,77.4,63.3,30.05,West,264,9.0,13.0,62,0.00,,,0.00,meteohub,2013-05-16 17:42:00,
2013-05-16 13:47:00,77.5,63.9,30.05,WSW,256,9.0,13.0,63,0.00,,,0.00,meteohub,2013-05-16 17:47:00,
2013-05-16 13:52:00,76.8,63.7,30.05,West,266,9.0,13.0,64,0.00,,,0.00,meteohub,2013-05-16 17:52:00,
2013-05-16 13:57:00,77.4,63.9,30.05,WNW,282,8.0,14.0,63,0.00,,,0.00,meteohub,2013-05-16 17:57:00,
2013-05-16 14:02:00,77.0,63.9,30.05,WSW,242,10.0,14.0,64,0.00,,,0.00,meteohub,2013-05-16 18:02:00,
2013-05-16 14:07:00,77.5,63.9,30.05,WSW,256,4.0,14.0,63,0.00,,,0.00,meteohub,2013-05-16 18:07:00,
2013-05-16 14:12:00,78.3,64.2,30.05,West,277,4.0,14.0,62,0.00,,,0.00,meteohub,2013-05-16 18:12:00,
2013-05-16 14:17:00,78.4,64.4,30.05,West,270,5.0,14.0,62,0.00,,,0.00,meteohub,2013-05-16 18:17:00,
2013-05-16 14:22:00,78.4,64.4,30.05,West,280,8.0,11.0,62,0.00,,,0.00,meteohub,2013-05-16 18:22:00,
2013-05-16 14:27:00,78.1,64.0,30.05,WSW,252,5.0,12.0,62,0.00,,,0.00,meteohub,2013-05-16 18:27:00,
2013-05-16 14:32:00,78.1,64.4,30.04,West,266,10.0,12.0,63,0.00,,,0.00,meteohub,2013-05-16 18:32:00,
2013-05-16 14:37:00,78.1,64.9,30.04,WSW,247,4.0,13.0,64,0.00,,,0.00,meteohub,2013-05-16 18:37:00,
2013-05-16 14:42:00,78.3,65.1,30.04,WNW,301,9.0,13.0,64,0.00,,,0.00,meteohub,2013-05-16 18:42:00,
2013-05-16 14:47:00,78.3,63.7,30.04,West,278,9.0,13.0,61,0.00,,,0.00,meteohub,2013-05-16 18:47:00,
2013-05-16 14:52:00,78.1,64.9,30.04,WNW,293,6.0,13.0,64,0.00,,,0.00,meteohub,2013-05-16 18:52:00,
2013-05-16 14:57:00,78.1,64.4,30.04,WNW,299,8.0,13.0,63,0.00,,,0.00,meteohub,2013-05-16 18:57:00,
2013-05-16 15:02:00,78.3,64.6,30.03,NW,310,8.0,13.0,63,0.00,,,0.00,meteohub,2013-05-16 19:02:00,
2013-05-16 15:07:00,78.1,64.4,30.03,West,280,8.0,13.0,63,0.00,,,0.00,meteohub,2013-05-16 19:07:00,
2013-05-16 15:12:00,78.4,65.3,30.02,WSW,251,8.0,12.0,64,0.00,,,0.00,meteohub,2013-05-16 19:12:00,
2013-05-16 15:17:00,78.4,65.3,30.02,WNW,299,8.0,12.0,64,0.00,,,0.00,meteohub,2013-05-16 19:17:00,
2013-05-16 15:22:00,78.3,65.1,30.02,West,273,8.0,12.0,64,0.00,,,0.00,meteohub,2013-05-16 19:22:00,
2013-05-16 15:27:00,78.6,65.8,30.02,WSW,237,6.0,12.0,65,0.00,,,0.00,meteohub,2013-05-16 19:27:00,
2013-05-16 15:32:00,78.4,65.3,30.01,West,272,8.0,12.0,64,0.00,,,0.00,meteohub,2013-05-16 19:32:00,
2013-05-16 15:37:00,77.7,65.5,30.01,West,268,7.0,16.0,66,0.00,,,0.00,meteohub,2013-05-16 19:37:00,
2013-05-16 15:42:00,78.3,65.5,30.01,NW,305,4.0,16.0,65,0.00,,,0.00,meteohub,2013-05-16 19:42:00,
2013-05-16 15:47:00,78.6,65.8,30.01,West,278,7.0,14.0,65,0.00,,,0.00,meteohub,2013-05-16 19:47:00,
2013-05-16 15:52:00,78.8,65.7,30.01,NW,311,8.0,13.0,64,0.00,,,0.00,meteohub,2013-05-16 19:52:00,
2013-05-16 15:57:00,79.3,66.0,30.01,NW,326,4.0,13.0,64,0.00,,,0.00,meteohub,2013-05-16 19:57:00,
2013-05-16 16:02:00,79.3,65.7,30.01,WNW,297,7.0,13.0,63,0.00,,,0.00,meteohub,2013-05-16 20:02:00,
2013-05-16 16:07:00,79.5,66.2,30.01,SW,231,4.0,12.0,64,0.00,,,0.00,meteohub,2013-05-16 20:07:00,
2013-05-16 16:12:00,80.1,65.8,30.01,NW,314,2.0,10.0,62,0.00,,,0.00,meteohub,2013-05-16 20:12:00,
2013-05-16 16:17:00,79.0,65.8,30.00,WNW,297,3.0,10.0,64,0.00,,,0.00,meteohub,2013-05-16 20:17:00,
2013-05-16 16:22:00,78.4,65.7,30.00,WNW,298,6.0,12.0,65,0.00,,,0.00,meteohub,2013-05-16 20:22:00,
2013-05-16 16:27:00,79.2,65.8,30.00,WNW,303,5.0,12.0,64,0.00,,,0.00,meteohub,2013-05-16 20:27:00,
2013-05-16 16:32:00,79.3,66.0,30.00,WNW,299,9.0,12.0,64,0.00,,,0.00,meteohub,2013-05-16 20:32:00,
2013-05-16 16:37:00,79.0,66.2,30.00,West,280,4.0,13.0,65,0.00,,,0.00,meteohub,2013-05-16 20:37:00,
2013-05-16 16:42:00,79.0,66.6,30.00,NE,43,2.0,13.0,66,0.00,,,0.00,meteohub,2013-05-16 20:42:00,
2013-05-16 16:47:00,79.3,66.6,29.99,WNW,292,4.0,13.0,65,0.00,,,0.00,meteohub,2013-05-16 20:47:00,
2013-05-16 16:52:00,79.9,67.1,29.99,WNW,282,6.0,13.0,65,0.00,,,0.00,meteohub,2013-05-16 20:52:00,
2013-05-16 16:57:00,79.9,66.2,29.99,NW,308,5.0,12.0,63,0.00,,,0.00,meteohub,2013-05-16 20:57:00,
2013-05-16 17:02:00,79.5,65.8,29.99,North,349,4.0,12.0,63,0.00,,,0.00,meteohub,2013-05-16 21:02:00,
2013-05-16 17:07:00,79.5,66.2,29.99,NW,308,3.0,12.0,64,0.00,,,0.00,meteohub,2013-05-16 21:07:00,
2013-05-16 17:12:00,79.9,66.2,29.99,WNW,295,3.0,9.0,63,0.00,,,0.00,meteohub,2013-05-16 21:12:00,
2013-05-16 17:17:00,79.3,66.0,29.99,West,273,8.0,9.0,64,0.00,,,0.00,meteohub,2013-05-16 21:17:00,
2013-05-16 17:22:00,79.9,66.2,29.98,WNW,296,4.0,11.0,63,0.00,,,0.00,meteohub,2013-05-16 21:22:00,
2013-05-16 17:27:00,80.1,65.8,29.98,WNW,302,5.0,11.0,62,0.00,,,0.00,meteohub,2013-05-16 21:27:00,
2013-05-16 17:32:00,79.0,65.8,29.98,WNW,283,6.0,10.0,64,0.00,,,0.00,meteohub,2013-05-16 21:32:00,
2013-05-16 17:37:00,79.3,66.6,29.98,West,276,3.0,9.0,65,0.00,,,0.00,meteohub,2013-05-16 21:37:00,
2013-05-16 17:42:00,79.5,66.2,29.98,WNW,282,0.0,9.0,64,0.00,,,0.00,meteohub,2013-05-16 21:42:00,
2013-05-16 17:47:00,80.2,66.6,29.98,NE,41,0.0,9.0,63,0.00,,,0.00,meteohub,2013-05-16 21:47:00,
2013-05-16 17:52:00,80.8,66.6,29.98,WNW,296,3.0,8.0,62,0.00,,,0.00,meteohub,2013-05-16 21:52:00,
2013-05-16 17:57:00,79.7,65.5,29.98,NW,326,7.0,7.0,62,0.00,,,0.00,meteohub,2013-05-16 21:57:00,
2013-05-16 18:02:00,78.8,65.7,29.97,NW,310,1.0,10.0,64,0.00,,,0.00,meteohub,2013-05-16 22:02:00,
2013-05-16 18:07:00,79.0,66.2,29.98,NNE,33,3.0,10.0,65,0.00,,,0.00,meteohub,2013-05-16 22:07:00,
2013-05-16 18:12:00,79.0,66.2,29.98,NNW,332,7.0,10.0,65,0.00,,,0.00,meteohub,2013-05-16 22:12:00,
2013-05-16 18:17:00,78.4,66.2,29.98,NE,38,6.0,8.0,66,0.00,,,0.00,meteohub,2013-05-16 22:17:00,
2013-05-16 18:22:00,78.4,66.2,29.98,NW,304,1.0,8.0,66,0.00,,,0.00,meteohub,2013-05-16 22:22:00,
2013-05-16 18:27:00,78.4,66.6,29.98,NE,50,4.0,8.0,67,0.00,,,0.00,meteohub,2013-05-16 22:27:00,
2013-05-16 18:32:00,78.1,66.2,29.98,North,354,5.0,6.0,67,0.00,,,0.00,meteohub,2013-05-16 22:32:00,
2013-05-16 18:37:00,77.9,66.6,29.98,WSW,243,1.0,8.0,68,0.00,,,0.00,meteohub,2013-05-16 22:37:00,
2013-05-16 18:42:00,78.3,66.7,29.98,NNW,336,3.0,8.0,68,0.00,,,0.00,meteohub,2013-05-16 22:42:00,
2013-05-16 18:47:00,77.9,66.9,29.97,North,354,2.0,8.0,69,0.00,,,0.00,meteohub,2013-05-16 22:47:00,
2013-05-16 18:52:00,77.9,66.9,29.97,NNE,24,2.0,8.0,69,0.00,,,0.00,meteohub,2013-05-16 22:52:00,
2013-05-16 18:57:00,78.1,67.5,29.97,NNW,327,0.0,8.0,70,0.00,,,0.00,meteohub,2013-05-16 22:57:00,
2013-05-16 19:02:00,78.1,67.5,29.97,NE,40,6.0,7.0,70,0.00,,,0.00,meteohub,2013-05-16 23:02:00,
2013-05-16 19:07:00,77.7,67.1,29.97,NW,318,7.0,9.0,70,0.00,,,0.00,meteohub,2013-05-16 23:07:00,
2013-05-16 19:12:00,77.5,67.5,29.97,NW,312,6.0,9.0,71,0.00,,,0.00,meteohub,2013-05-16 23:12:00,
2013-05-16 19:17:00,77.4,66.7,29.97,ENE,71,1.0,9.0,70,0.00,,,0.00,meteohub,2013-05-16 23:17:00,
2013-05-16 19:22:00,77.5,67.8,29.97,WNW,303,6.0,8.0,72,0.00,,,0.00,meteohub,2013-05-16 23:22:00,
2013-05-16 19:27:00,77.4,67.6,29.97,NNE,16,5.0,12.0,72,0.00,,,0.00,meteohub,2013-05-16 23:27:00,
2013-05-16 19:32:00,77.2,67.5,29.97,North,354,6.0,12.0,72,0.00,,,0.00,meteohub,2013-05-16 23:32:00,
2013-05-16 19:37:00,76.8,67.5,29.97,North,359,0.0,12.0,73,0.00,,,0.00,meteohub,2013-05-16 23:37:00,
2013-05-16 19:42:00,76.6,67.6,29.97,NNE,19,4.0,10.0,74,0.00,,,0.00,meteohub,2013-05-16 23:42:00,
2013-05-16 19:47:00,76.5,68.0,29.98,NNW,339,0.0,10.0,75,0.00,,,0.00,meteohub,2013-05-16 23:47:00,
2013-05-16 19:52:00,75.9,67.5,29.98,NW,315,1.0,8.0,75,0.00,,,0.00,meteohub,2013-05-16 23:52:00,
2013-05-16 19:57:00,75.9,67.5,29.98,WNW,303,1.0,11.0,75,0.00,,,0.00,meteohub,2013-05-16 23:57:00,
2013-05-16 20:02:00,75.9,67.5,29.98,NNE,25,3.0,11.0,75,0.00,,,0.00,meteohub,2013-05-17 00:02:00,
2013-05-16 20:07:00,75.9,67.8,29.98,North,10,3.0,7.0,76,0.00,,,0.00,meteohub,2013-05-17 00:07:00,
2013-05-16 20:12:00,75.6,67.5,29.98,NNW,337,2.0,10.0,76,0.00,,,0.00,meteohub,2013-05-17 00:12:00,
2013-05-16 20:17:00,75.6,67.5,29.98,NNE,28,4.0,10.0,76,0.00,,,0.00,meteohub,2013-05-17 00:17:00,
2013-05-16 20:22:00,75.6,67.8,29.98,NNE,25,2.0,10.0,77,0.00,,,0.00,meteohub,2013-05-17 00:22:00,
2013-05-16 20:27:00,75.6,67.8,29.98,North,359,2.0,7.0,77,0.00,,,0.00,meteohub,2013-05-17 00:27:00,
2013-05-16 20:32:00,75.6,67.8,29.98,NNW,331,2.0,8.0,77,0.00,,,0.00,meteohub,2013-05-17 00:32:00,
2013-05-16 20:37:00,75.6,67.8,29.99,WNW,303,2.0,8.0,77,0.00,,,0.00,meteohub,2013-05-17 00:37:00,
2013-05-16 20:42:00,75.6,68.2,29.99,North,10,3.0,7.0,78,0.00,,,0.00,meteohub,2013-05-17 00:42:00,
2013-05-16 20:47:00,75.4,68.0,29.99,NNE,13,1.0,7.0,78,0.00,,,0.00,meteohub,2013-05-17 00:47:00,
2013-05-16 20:52:00,75.4,68.0,29.99,NNE,13,1.0,7.0,78,0.00,,,0.00,meteohub,2013-05-17 00:52:00,
2013-05-16 20:57:00,75.4,68.0,29.99,NNE,24,0.0,9.0,78,0.00,,,0.00,meteohub,2013-05-17 00:57:00,
2013-05-16 21:02:00,75.4,68.0,29.99,NNW,332,3.0,9.0,78,0.00,,,0.00,meteohub,2013-05-17 01:02:00,
2013-05-16 21:07:00,75.4,68.4,29.99,North,350,2.0,6.0,79,0.00,,,0.00,meteohub,2013-05-17 01:07:00,
2013-05-16 21:12:00,75.4,68.0,29.99,NNW,331,0.0,5.0,78,0.00,,,0.00,meteohub,2013-05-17 01:12:00,
2013-05-16 21:17:00,75.2,67.8,29.99,NNW,348,3.0,6.0,78,0.00,,,0.00,meteohub,2013-05-17 01:17:00,
2013-05-16 21:22:00,75.2,67.8,30.00,NW,314,6.0,6.0,78,0.00,,,0.00,meteohub,2013-05-17 01:22:00,
2013-05-16 21:27:00,75.0,68.0,30.00,NW,324,3.0,8.0,79,0.00,,,0.00,meteohub,2013-05-17 01:27:00,
2013-05-16 21:32:00,75.2,68.2,30.00,NNE,25,1.0,8.0,79,0.00,,,0.00,meteohub,2013-05-17 01:32:00,
2013-05-16 21:37:00,75.2,68.2,30.00,North,354,1.0,9.0,79,0.00,,,0.00,meteohub,2013-05-17 01:37:00,
2013-05-16 21:42:00,75.2,68.2,30.01,North,354,0.0,9.0,79,0.00,,,0.00,meteohub,2013-05-17 01:42:00,
2013-05-16 21:47:00,75.2,68.2,30.01,North,349,0.0,9.0,79,0.00,,,0.00,meteohub,2013-05-17 01:47:00,
2013-05-16 21:52:00,75.2,68.2,30.01,NNW,337,0.0,7.0,79,0.00,,,0.00,meteohub,2013-05-17 01:52:00,
2013-05-16 21:57:00,75.0,68.4,30.01,NW,322,0.0,8.0,80,0.00,,,0.00,meteohub,2013-05-17 01:57:00,
2013-05-16 22:02:00,75.0,68.4,30.01,WSW,250,2.0,8.0,80,0.00,,,0.00,meteohub,2013-05-17 02:02:00,
2013-05-16 22:07:00,75.0,68.4,30.01,NNE,27,3.0,8.0,80,0.00,,,0.00,meteohub,2013-05-17 02:07:00,
2013-05-16 22:12:00,74.8,68.2,30.01,North,354,1.0,10.0,80,0.00,,,0.00,meteohub,2013-05-17 02:12:00,
2013-05-16 22:17:00,74.8,68.5,30.02,North,354,0.0,10.0,81,0.00,,,0.00,meteohub,2013-05-17 02:17:00,
2013-05-16 22:22:00,74.8,68.5,30.02,NW,320,0.0,10.0,81,0.00,,,0.00,meteohub,2013-05-17 02:22:00,
2013-05-16 22:27:00,74.8,68.5,30.02,NNW,341,1.0,7.0,81,0.00,,,0.00,meteohub,2013-05-17 02:27:00,
2013-05-16 22:32:00,74.8,68.5,30.02,North,10,4.0,7.0,81,0.00,,,0.00,meteohub,2013-05-17 02:32:00,
2013-05-16 22:37:00,74.8,68.5,30.03,NNW,347,4.0,7.0,81,0.00,,,0.00,meteohub,2013-05-17 02:37:00,
2013-05-16 22:42:00,74.8,68.5,30.02,NNW,332,2.0,7.0,81,0.00,,,0.00,meteohub,2013-05-17 02:42:00,
2013-05-16 22:47:00,74.8,68.9,30.03,North,354,0.0,7.0,82,0.00,,,0.00,meteohub,2013-05-17 02:47:00,
2013-05-16 22:52:00,74.8,68.9,30.02,NNE,31,1.0,7.0,82,0.00,,,0.00,meteohub,2013-05-17 02:52:00,
2013-05-16 22:57:00,74.7,68.7,30.02,NNE,14,2.0,6.0,82,0.00,,,0.00,meteohub,2013-05-17 02:57:00,
2013-05-16 23:02:00,74.7,68.7,30.02,NW,322,3.0,6.0,82,0.00,,,0.00,meteohub,2013-05-17 03:02:00,
2013-05-16 23:07:00,74.7,68.7,30.02,North,354,6.0,6.0,82,0.00,,,0.00,meteohub,2013-05-17 03:07:00,
2013-05-16 23:12:00,74.7,68.7,30.03,North,359,2.0,6.0,82,0.00,,,0.00,meteohub,2013-05-17 03:12:00,
2013-05-16 23:17:00,74.7,69.1,30.03,NNE,33,5.0,6.0,83,0.00,,,0.00,meteohub,2013-05-17 03:17:00,
2013-05-16 23:22:00,74.7,69.1,30.03,North,359,4.0,6.0,83,0.00,,,0.00,meteohub,2013-05-17 03:22:00,
2013-05-16 23:27:00,74.7,69.1,30.02,North,4,3.0,7.0,83,0.00,,,0.00,meteohub,2013-05-17 03:27:00,
2013-05-16 23:32:00,74.7,69.1,30.02,NNE,13,1.0,7.0,83,0.00,,,0.00,meteohub,2013-05-17 03:32:00,
2013-05-16 23:37:00,74.7,69.1,30.02,NNE,14,0.0,7.0,83,0.00,,,0.00,meteohub,2013-05-17 03:37:00,
2013-05-16 23:42:00,74.7,68.7,30.02,NNE,15,2.0,7.0,82,0.00,,,0.00,meteohub,2013-05-17 03:42:00,
2013-05-16 23:47:00,74.5,68.5,30.02,North,354,0.0,4.0,82,0.00,,,0.00,meteohub,2013-05-17 03:47:00,
2013-05-16 23:52:00,74.5,68.9,30.02,NNE,28,3.0,5.0,83,0.00,,,0.00,meteohub,2013-05-17 03:52:00,
2013-05-16 23:57:00,74.5,68.5,30.02,ENE,78,5.0,5.0,82,0.00,,,0.00,meteohub,2013-05-17 03:57:00,